This demonstration page uses our WeatherBlox Daily Observations layout. Learn more.

38.88101, -77.10428

Hourly Observations for March 21, 2017

Temp ( °F °C ) Dew Point ( °F °C ) Humidity (%) Winds ( mph kmh ) Pressure ( in mb ) Visibility ( mi km ) Precip ( " mm )
12:52 am 00:52 Cloudy 50 10 35 1.7 57 57 NE 3 6 30 1016 10 16.09344 0 0
1:52 am 01:52 Cloudy 50 10 33 0.6 52 52 ESE 5 7 29.97 1015 10 16.09344 0 0
2:52 am 02:52 Cloudy 50 10 31 -0.6 48 48 Calm 29.97 1015 10 16.09344 0 0
3:52 am 03:52 Cloudy 47 8.3 39 3.9 74 74 ENE 7 11 29.94 1014 10 16.09344 0.001 0.001
4:52 am 04:52 Cloudy with Light Rain 47 8.3 39 3.9 74 74 NE 7 11 29.94 1014 10 16.09344 0.001 0.001
5:52 am 05:52 Cloudy 47 8.3 37 2.8 69 69 NNE 5 7 29.94 1014 10 16.09344 0.001 0.001
6:52 am 06:52 Cloudy 46 7.8 36 2.2 68 68 ENE 7 11 29.91 1013 10 16.09344 0 0
7:52 am 07:52 Cloudy 47 8.3 37 2.8 69 69 NNE 6 9 29.94 1014 10 16.09344 0 0
8:52 am 08:52 Cloudy 47 8.3 35 1.7 63 63 NE 7 11 29.97 1015 10 16.09344 0 0
9:52 am 09:52 Cloudy 48 8.9 34 1.1 58 58 NNE 6 9 29.97 1015 10 16.09344 0 0
10:52 am 10:52 Cloudy 49 9.4 33 0.6 55 55 Calm 30 1016 10 16.09344 0 0
11:52 am 11:52 Cloudy 52 11.1 35 1.7 53 53 NW 7 11 30 1016 10 16.09344 0 0
12:52 pm 12:52 Cloudy 55 12.8 38 3.3 53 53 NNW 7 11 29.97 1015 10 16.09344 0 0
1:52 pm 13:52 Cloudy 58 14.4 39 3.9 50 50 NNW 8 13 29.97 1015 10 16.09344 0 0
2:52 pm 14:52 Mostly Cloudy 60 15.6 42 5.6 52 52 N 6 9 29.94 1014 10 16.09344 0 0
3:52 pm 15:52 Mostly Cloudy 62 16.7 42 5.6 48 48 NW 12 19 29.91 1013 10 16.09344 0 0
4:52 pm 16:52 Mostly Cloudy 63 17.2 43 6.1 48 48 NNW 12 19 29.91 1013 10 16.09344 0 0
5:52 pm 17:52 Mostly Cloudy 62 16.7 41 5 46 46 NNW 10 17 29.91 1013 10 16.09344 0 0
6:52 pm 18:52 Mostly Cloudy 60 15.6 41 5 50 50 NNW 9 15 29.91 1013 10 16.09344 0 0
7:52 pm 19:52 Mostly Cloudy 58 14.4 41 5 53 53 N 8 13 29.94 1014 10 16.09344 0 0
8:52 pm 20:52 Mostly Cloudy 59 15 40 4.4 49 49 NW 9 15 29.94 1014 10 16.09344 0 0
9:52 pm 21:52 Mostly Cloudy 57 13.9 38 3.3 49 49 WNW 6 9 29.94 1014 10 16.09344 0 0
10:52 pm 22:52 Cloudy 57 13.9 38 3.3 49 49 SW 6 9 29.94 1014 10 16.09344 0 0
11:52 pm 23:52 Cloudy 56 13.3 39 3.9 53 53 SSW 7 11 29.91 1013 10 16.09344 0 0

Powered by AerisWeather